Location: Worth Mountain WMA
(34.9569°N, 81.4819°W)
Time: 13:16:07
(UTC-04:00)

Amateur Radio Satellites - All Passes

Search period start: 29 May 2016 12:46
Search period end: 30 May 2016 12:46
Location: Worth Mountain WMA, 34.9569°N, 81.4819°W

Satellite Date Start Highest point End Downlink Frequencies (MHz)
Time Altitude Azimuth
POPSAT HIP 1 29 May 12:54:42 12:58:23 28° 263° (W) 13:02:05 437.405
QB50P1 29 May 12:54:56 12:58:35 28° 263° (W) 13:02:14 145.935-145.965
Oscar 19 29 May 12:55:32 12:58:41 16° 65° (ENE) 13:01:51 437.125/150
QB50P2 29 May 12:58:09 13:01:38 24° 264° (W) 13:05:07 145.880/145.840
POLYITAN 1 29 May 13:00:41 13:04:07 24° 264° (W) 13:07:33 437.675
HUMSAT D 29 May 13:01:34 13:03:12 12° 293° (WNW) 13:04:49 437.325/437.525
ESTCUBE 1 29 May 13:10:34 13:15:02 59° 285° (WNW) 13:19:28 437.505/2401.250
CUBEBUG 1 29 May 13:12:14 13:16:37 82° 283° (WNW) 13:20:56 437.445
DX 1 29 May 13:12:15 13:16:37 77° 102° (ESE) 13:20:57 434.975-435.025
NANOSAT C BR1 29 May 13:13:02 13:15:59 18° 265° (W) 13:18:58 145.865
50 SAT 29 May 13:16:49 13:20:28 53° 284° (WNW) 13:24:06 437.505
CUSAT 1 29 May 13:19:12 13:24:57 34° 289° (WNW) 13:31:47 437.405
VELOX 1 29 May 13:24:25 13:28:47 62° 285° (WNW) 13:33:07 145.980
AIST 2 29 May 13:27:36 13:31:29 41° 114° (ESE) 13:35:23 435.215
SPROUT 29 May 13:30:18 13:34:31 57° 101° (E) 13:38:40 437.525
DANDE 29 May 13:30:53 13:36:08 52° 284° (WNW) 13:43:03 436.750
Gurwin Techsat 1B 29 May 13:33:54 13:37:03 16° 64° (ENE) 13:40:12 435.225
TISAT 1 29 May 13:47:53 13:51:08 22° 96° (E) 13:54:21 437.305
UKube-1 29 May 13:58:06 14:02:05 37° 288° (WNW) 14:06:03 .
AISAT 29 May 14:01:32 14:04:58 23° 291° (WNW) 14:08:24 437.250
BUGSAT 1 29 May 14:02:05 14:03:34 12° 267° (W) 14:05:04 437.445
JAS-2 29 May 14:14:19 14:21:19 50° 262° (W) 14:28:53 435.910
AO-85 29 May 14:31:39 14:34:55 19° 48° (NE) 14:38:00 145.980
Oscar 19 29 May 14:32:27 14:37:31 53° 260° (W) 14:42:37 437.125/150
AO-7 29 May 14:37:42 14:43:07 20° 55° (NE) 14:48:33 29.400- 29.500
Cosmos 2491 29 May 14:40:35 14:47:19 24° 70° (ENE) 14:53:59 435.465 / 435.565
AIST 2 29 May 15:07:31 15:10:08 16° 310° (NW) 15:12:47 435.215
SPROUT 29 May 15:09:12 15:09:54 10° 295° (WNW) 15:10:37 437.525
Gurwin Techsat 1B 29 May 15:11:17 15:16:29 57° 259° (W) 15:21:43 435.225
ITAMSAT 1 29 May 15:18:22 15:23:28 64° 74° (ENE) 15:28:36 435.822/435.867
TISAT 1 29 May 15:23:18 15:26:41 24° 290° (WNW) 15:30:04 437.305
SWISSCUBE 29 May 15:26:16 15:31:00 57° 101° (E) 15:35:42 437.505
ITUPSAT 1 29 May 15:33:31 15:38:17 60° 101° (E) 15:43:02 437.325
BEESAT 29 May 15:55:41 16:00:29 77° 286° (WNW) 16:05:16 436.000
AO-85 29 May 16:11:24 16:15:35 39° 247° (WSW) 16:19:26 145.980
KKS-1 29 May 16:18:41 16:21:55 20° 95° (E) 16:25:07 437.445
AO-7 29 May 16:26:33 16:34:51 85° 253° (WSW) 16:43:13 29.400- 29.500
RS-15 29 May 16:29:52 16:39:31 35° 105° (ESE) 16:49:34 29.354- 29.394
YUBILEINY 29 May 16:30:37 16:39:05 61° 91° (E) 16:47:35 435.215
Cosmos 2491 29 May 16:36:08 16:44:43 64° 268° (W) 16:53:15 435.465 / 435.565
HORYU 2 29 May 16:39:56 16:43:25 23° 69° (ENE) 16:46:53 437.375
MOZHAYETS 4 29 May 16:48:27 16:52:40 34° 98° (E) 16:56:51
STARS 29 May 16:48:34 16:51:53 21° 96° (E) 16:55:10 437.465
ITAMSAT 1 29 May 17:01:14 17:03:18 12° 268° (W) 17:05:23 435.822/435.867
SWISSCUBE 29 May 17:05:57 17:08:16 14° 295° (WNW) 17:10:34 437.505
ITUPSAT 1 29 May 17:13:26 17:15:34 13° 296° (WNW) 17:17:43 437.325
BRITE-PL 29 May 17:47:11 17:51:13 20° 66° (ENE) 17:55:14 437.365/2234.400
NOAA 15 29 May 17:51:03 17:55:27 27° 68° (ENE) 17:59:51 137.62
KKS-1 29 May 17:54:36 17:58:28 30° 289° (WNW) 18:02:20 437.445
GOMX 1 29 May 18:02:47 18:05:03 13° 64° (ENE) 18:07:19 467.674
Cubesat XI-IV 29 May 18:03:56 18:08:07 24° 67° (ENE) 18:12:17 437.490
Cosmos 2504 29 May 18:06:58 18:14:06 70° 93° (E) 18:21:36 435.465 / 435.565
HORYU 2 29 May 18:16:07 18:19:50 26° 263° (W) 18:23:32 437.375
LilacSat-2 29 May 18:16:15 18:19:07 21° 71° (ENE) 18:21:58 437.200
NOAA 18 29 May 18:18:54 18:24:01 43° 71° (ENE) 18:29:09 137.9125
CUBESAT XI-V 29 May 18:19:34 18:23:54 36° 97° (E) 18:28:11 437.345
STARS 29 May 18:24:29 18:28:12 28° 290° (WNW) 18:31:54 437.465
AO-7 29 May 18:24:52 18:28:33 13° 269° (W) 18:32:16 29.400- 29.500
MOZHAYETS 4 29 May 18:26:12 18:29:34 20° 292° (WNW) 18:32:55
YUBILEINY 29 May 18:29:33 18:36:22 25° 289° (WNW) 18:43:14 435.215
RS-15 29 May 18:40:03 18:51:11 61° 305° (NW) 19:03:00 29.354- 29.394
DOVE 4 29 May 18:40:26 18:42:53 13° 66° (ENE) 18:45:16 437.250
CUTE-I 29 May 18:48:13 18:53:27 66° 74° (ENE) 18:58:44 437.470
PCSat 29 May 19:19:37 19:25:00 60° 62° (ENE) 19:30:19 145.827
HO-68 29 May 19:23:16 19:28:21 21° 61° (ENE) 19:33:26 435.675
BRITE-PL 29 May 19:23:43 19:29:11 52° 261° (W) 19:34:44 437.365/2234.400
O/OREOS (USA 219) 29 May 19:27:12 19:31:19 35° 65° (ENE) 19:35:23 437.305
NOAA 15 29 May 19:30:20 19:35:02 32° 262° (W) 19:39:47 137.62
GOMX 1 29 May 19:36:58 19:42:28 77° 259° (W) 19:47:52 467.674
Cubesat XI-IV 29 May 19:43:05 19:47:56 36° 262° (W) 19:52:50 437.490
AUBIESAT-1 29 May 19:47:18 19:50:29 22° 67° (ENE) 19:53:31 437.475
LilacSat-2 29 May 19:50:23 19:53:17 21° 264° (W) 19:56:12 437.200
CANX-2 29 May 19:50:49 19:53:43 18° 69° (ENE) 19:56:38 2200.000
SEEDS 29 May 19:50:56 19:52:00 11° 66° (ENE) 19:53:03 437.485
BEESAT 3 29 May 19:54:25 19:57:02 17° 51° (NE) 19:59:38 437.485
M-CUBED/EXP-1 PRIME 29 May 19:55:20 19:59:10 35° 69° (ENE) 20:02:44 437.505
CUBESAT XI-V 29 May 19:57:38 20:00:59 20° 292° (WNW) 20:04:19 437.345
NOAA 18 29 May 20:00:47 20:04:48 21° 265° (W) 20:08:50 137.9125
Cosmos 2504 29 May 20:03:35 20:08:14 18° 292° (WNW) 20:13:01 435.465 / 435.565
DOVE 4 29 May 20:14:50 20:20:02 65° 259° (W) 20:25:04 437.250
CUTE 1.7 + AOD 2 29 May 20:16:40 20:20:23 32° 72° (ENE) 20:24:08 437.475
ISS 29 May 20:26:22 20:29:22 35° 132° (SE) 20:32:23 145.825
CINEMA 3 29 May 20:29:22 20:33:59 53° 75° (ENE) 20:38:24 145.822/145.860
COMPASS 1 29 May 20:30:22 20:33:37 23° 70° (ENE) 20:36:53 437.405
AAUSAT CUBESAT 2 29 May 20:31:04 20:33:55 18° 69° (ENE) 20:36:46 437.432
STRAND 1 29 May 20:31:39 20:36:46 64° 102° (ESE) 20:41:53 437.568
CUTE-I 29 May 20:31:42 20:33:54 12° 268° (W) 20:36:06 437.470
AIST 1 29 May 20:44:18 20:47:03 16° 87° (E) 20:49:47
ZACube-1 29 May 20:51:45 20:52:34 10° 66° (ENE) 20:53:23 437.345
RS-15 29 May 20:59:06 21:06:56 20° 333° (NNW) 21:15:02 29.354- 29.394
BEESAT 2 29 May 21:00:48 21:04:41 49° 58° (ENE) 21:08:32 435.950
CUBEBUG 2 29 May 21:03:57 21:07:57 36° 73° (ENE) 21:11:52 437.445
PCSat 29 May 21:04:49 21:07:48 15° 256° (WSW) 21:10:46 145.827
O/OREOS (USA 219) 29 May 21:07:28 21:10:22 17° 260° (W) 21:13:15 437.305
HO-68 29 May 21:08:19 21:15:24 66° 257° (WSW) 21:22:32 435.675
AUBIESAT-1 29 May 21:21:31 21:24:51 23° 257° (WSW) 21:28:01 437.475
SEEDS 29 May 21:23:07 21:27:12 53° 260° (W) 21:31:17 437.485
FUNcube-1 29 May 21:25:37 21:29:06 26° 71° (ENE) 21:32:32 145.935
CANX-2 29 May 21:25:38 21:29:20 30° 263° (W) 21:33:03 2200.000
UWE-3 29 May 21:27:27 21:31:33 45° 75° (ENE) 21:35:36 435.000/436.395/437.385
PHONESAT 2.4 29 May 21:28:41 21:31:46 58° 153° (SSE) 21:34:52 2401.200-2431.200
BEESAT 3 29 May 21:31:12 21:34:50 35° 246° (WSW) 21:38:25 437.485
M-CUBED/EXP-1 PRIME 29 May 21:31:14 21:33:42 15° 259° (W) 21:36:06 437.505
CUTE 1.7 + AOD 2 29 May 21:53:32 21:56:16 17° 266° (W) 21:59:01 437.475
AIST 2 29 May 21:53:34 21:55:16 12° 47° (NE) 21:56:57 435.215
ISS 29 May 22:03:21 22:05:53 20° 328° (NNW) 22:08:25 145.825
Oscar 11 29 May 22:05:04 22:09:21 84° 258° (WSW) 22:13:40 145.826/435.025
AAUSAT CUBESAT 2 29 May 22:05:34 22:09:10 29° 263° (W) 22:12:47 437.432
COMPASS 1 29 May 22:05:45 22:09:03 23° 264° (W) 22:12:24 437.405
PRISM 29 May 22:08:49 22:12:55 58° 285° (WNW) 22:16:59 437.425
CINEMA 3 29 May 22:09:18 22:11:18 13° 267° (W) 22:13:17 145.822/145.860
HUMSAT D 29 May 22:12:46 22:15:51 21° 70° (ENE) 22:18:56 437.325/437.525
STRAND 1 29 May 22:12:52 22:15:21 14° 296° (WNW) 22:17:51 437.568
DELFI C3 29 May 22:15:29 22:19:21 55° 75° (ENE) 22:23:15 145.870
CUSAT 1 29 May 22:16:56 22:22:46 25° 67° (ENE) 22:27:46 437.405
AIST 1 29 May 22:20:20 22:24:19 33° 282° (WNW) 22:28:19
GONETS M04 29 May 22:21:01 22:29:45 72° 93° (E) 22:38:27
ZACube-1 29 May 22:24:13 22:28:22 54° 260° (W) 22:32:29 437.345
DANDE 29 May 22:32:08 22:37:48 20° 65° (ENE) 22:43:01 436.750
Cosmos 2499 29 May 22:34:40 22:41:31 49° 90° (E) 22:48:51 435.465 / 435.565
BEESAT 2 29 May 22:41:03 22:42:03 11° 252° (WSW) 22:43:01 435.950
CUBEBUG 2 29 May 22:42:00 22:44:39 16° 266° (W) 22:47:16 437.445
ANTELSAT 29 May 22:57:08 23:00:22 20° 95° (E) 23:03:37 437.575/2403.000
FUNcube-1 29 May 23:02:06 23:05:17 21° 265° (W) 23:08:27 145.935
PHONESAT 2.4 29 May 23:05:41 23:08:37 35° 349° (NNW) 23:11:33 2401.200-2431.200
UWE-3 29 May 23:06:35 23:08:12 12° 267° (W) 23:09:49 435.000/436.395/437.385
SO-50 29 May 23:16:36 23:19:35 16° 108° (ESE) 23:22:34 436.795
AISAT 29 May 23:19:53 23:22:46 17° 67° (ENE) 23:25:40 437.250
RS-15 29 May 23:20:49 23:26:43 14° 11° (NNE) 23:32:40 29.354- 29.394
AIST 2 29 May 23:30:02 23:34:08 62° 243° (WSW) 23:38:12 435.215
HUMSAT D 29 May 23:48:01 23:51:20 24° 264° (W) 23:54:40 437.325/437.525
UNISAT 6 29 May 23:51:40 23:56:00 88° 288° (WNW) 00:00:25 437.425
50 SAT 29 May 23:51:46 23:55:06 36° 74° (ENE) 23:58:29 437.505
CUSAT 1 29 May 23:58:16 00:05:21 51° 269° (W) 00:11:02 437.405
TIGRISAT 29 May 23:58:22 00:02:41 79° 284° (WNW) 00:07:05 435.000
DUCHIFAT 1 30 May 00:02:20 00:04:54 16° 94° (E) 00:07:27 145.980
DX 1 30 May 00:04:21 00:08:29 42° 73° (ENE) 00:12:38 434.975-435.025
CUBEBUG 1 30 May 00:04:32 00:08:51 53° 74° (ENE) 00:13:10 437.445
ESTCUBE 1 30 May 00:06:20 00:10:51 84° 77° (ENE) 00:15:24 437.505/2401.250
DANDE 30 May 00:13:18 00:21:41 81° 264° (W) 00:28:47 436.750
VELOX 1 30 May 00:17:58 00:22:24 75° 76° (ENE) 00:26:52 145.980
SPROUT 30 May 00:20:51 00:24:32 28° 71° (ENE) 00:28:13 437.525
GONETS M04 30 May 00:21:02 00:27:17 21° 291° (WNW) 00:33:35
Cosmos 2499 30 May 00:29:02 00:34:56 26° 289° (WNW) 00:41:10 435.465 / 435.565
ANTELSAT 30 May 00:33:19 00:37:03 29° 289° (WNW) 00:40:50 437.575/2403.000
TISAT 1 30 May 00:38:16 00:39:41 11° 66° (ENE) 00:41:05 437.305
POPSAT HIP 1 30 May 00:42:06 00:46:13 55° 101° (E) 00:50:20 437.405
QB50P1 30 May 00:42:14 00:46:22 56° 100° (E) 00:50:29 145.935-145.965
PHONESAT 2.4 30 May 00:42:58 00:45:47 29° 5° (N) 00:48:35 2401.200-2431.200
QB50P2 30 May 00:45:24 00:49:36 66° 102° (ESE) 00:53:46 145.880/145.840
POLYITAN 1 30 May 00:47:53 00:52:04 68° 102° (ESE) 00:56:14 437.675
UKube-1 30 May 00:48:42 00:53:01 70° 258° (WSW) 00:57:21 .
AISAT 30 May 00:54:46 00:58:56 38° 262° (W) 01:03:05 437.250
SO-50 30 May 00:54:52 00:59:38 51° 303° (WNW) 01:04:25 436.795
NANOSAT C BR1 30 May 00:59:10 01:03:22 88° 100° (E) 01:07:33 145.865
50 SAT 30 May 01:28:16 01:28:58 10° 267° (W) 01:29:41 437.505
JAS-2 30 May 01:29:01 01:35:18 32° 94° (E) 01:40:57 435.910
RS-15 30 May 01:33:36 01:44:39 36° 44° (NE) 01:55:36 29.354- 29.394
DUCHIFAT 1 30 May 01:36:54 01:40:39 33° 288° (WNW) 01:44:24 145.980
DX 1 30 May 01:42:33 01:44:50 14° 266° (W) 01:47:07 434.975-435.025
CUBEBUG 1 30 May 01:43:59 01:45:23 11° 268° (W) 01:46:48 437.445
BUGSAT 1 30 May 01:44:12 01:48:10 61° 285° (WNW) 01:52:07 437.445
SPROUT 30 May 01:57:18 02:00:27 20° 265° (W) 02:03:37 437.525
DANDE 30 May 01:59:36 02:02:57 13° 282° (WNW) 02:06:09 436.750
TISAT 1 30 May 02:10:44 02:14:51 51° 259° (W) 02:18:58 437.305
PHONESAT 2.4 30 May 02:19:40 02:22:48 75° 22° (NNE) 02:25:54 2401.200-2431.200
POPSAT HIP 1 30 May 02:20:39 02:21:29 11° 295° (WNW) 02:22:20 437.405
QB50P1 30 May 02:21:00 02:21:37 10° 295° (WNW) 02:22:14 145.935-145.965
SWISSCUBE 30 May 02:29:26 02:33:56 44° 72° (ENE) 02:38:27 437.505
ITUPSAT 1 30 May 02:36:59 02:41:31 47° 73° (ENE) 02:46:05 437.325
YUBILEINY 30 May 02:45:42 02:52:34 25° 71° (ENE) 02:59:25 435.215
Oscar 19 30 May 02:47:15 02:52:24 71° 102° (ESE) 02:57:29 437.125/150
ISS 30 May 02:57:23 02:59:11 14° 28° (NNE) 03:00:58 145.825
BEESAT 30 May 02:58:34 03:03:18 84° 76° (ENE) 03:08:05 436.000
JAS-2 30 May 03:13:42 03:20:20 40° 293° (WNW) 03:26:17 435.910
KKS-1 30 May 03:14:51 03:16:55 13° 66° (ENE) 03:18:59 437.445
Gurwin Techsat 1B 30 May 03:30:41 03:36:02 76° 103° (ESE) 03:41:20 435.225
ITAMSAT 1 30 May 03:34:56 03:39:28 29° 97° (E) 03:44:00 435.822/435.867
Cosmos 2491 30 May 03:37:34 03:44:57 31° 85° (E) 03:52:19 435.465 / 435.565
STARS 30 May 03:43:20 03:45:27 13° 66° (ENE) 03:47:33 437.465
RS-15 30 May 03:45:51 03:58:05 71° 247° (WSW) 04:10:08 29.354- 29.394
MOZHAYETS 4 30 May 03:47:37 03:51:07 22° 69° (ENE) 03:54:38
PHONESAT 2.4 30 May 03:57:07 03:59:16 17° 215° (SW) 04:01:25 2401.200-2431.200
Cosmos 2504 30 May 04:03:17 04:09:41 23° 71° (ENE) 04:16:14 435.465 / 435.565
SWISSCUBE 30 May 04:09:05 04:11:54 16° 266° (W) 04:14:45 437.505
ITUPSAT 1 30 May 04:16:55 04:19:33 15° 267° (W) 04:22:12 437.325
Oscar 19 30 May 04:29:03 04:31:03 12° 297° (WNW) 04:33:02 437.125/150
AO-7 30 May 04:32:13 04:39:59 41° 100° (E) 04:47:42 29.400- 29.500
ISS 30 May 04:32:42 04:35:57 71° 223° (SW) 04:39:10 145.825
YUBILEINY 30 May 04:41:17 04:49:53 62° 268° (W) 04:58:29 435.215
AO-85 30 May 04:42:50 04:46:01 16° 107° (ESE) 04:49:12 145.980
KKS-1 30 May 04:48:40 04:53:01 50° 260° (W) 04:57:22 437.445
Gurwin Techsat 1B 30 May 05:13:18 05:15:16 12° 298° (WNW) 05:17:14 435.225
ITAMSAT 1 30 May 05:14:23 05:18:49 29° 291° (WNW) 05:23:14 435.822/435.867
STARS 30 May 05:17:06 05:21:21 48° 260° (W) 05:25:37 437.465
CUBESAT XI-V 30 May 05:19:55 05:23:41 24° 70° (ENE) 05:27:27 437.345
MOZHAYETS 4 30 May 05:24:09 05:28:06 29° 263° (W) 05:32:04
Cosmos 2491 30 May 05:32:51 05:41:20 50° 282° (WNW) 05:49:50 435.465 / 435.565
Cosmos 2504 30 May 05:55:07 06:03:39 71° 267° (W) 06:12:28 435.465 / 435.565
JUGNU 30 May 05:56:32 05:59:55 16° 171° (S) 06:03:19 437.505
RS-15 30 May 06:03:45 06:08:15 13° 264° (W) 06:12:47 29.354- 29.394
HORYU 2 30 May 06:09:19 06:13:46 73° 102° (ESE) 06:18:12 437.375
NOAA 15 30 May 06:11:08 06:13:15 12° 92° (E) 06:15:23 137.62
AO-85 30 May 06:20:37 06:26:01 63° 301° (WNW) 06:31:22 145.980
AO-7 30 May 06:24:59 06:32:37 41° 296° (WNW) 06:40:15 29.400- 29.500
Cubesat XI-IV 30 May 06:26:04 06:27:55 12° 91° (E) 06:29:46 437.490
NOAA 18 30 May 06:44:42 06:49:04 24° 96° (E) 06:53:25 137.9125
CUBESAT XI-V 30 May 06:56:55 07:00:54 28° 264° (W) 07:04:56 437.345
CUTE-I 30 May 07:08:52 07:13:44 34° 98° (E) 07:18:34 437.470
LilacSat-2 30 May 07:25:58 07:29:38 48° 99° (E) 07:33:18 437.200
BRITE-PL 30 May 07:32:46 07:37:43 74° 101° (ESE) 07:42:14 437.365/2234.400
GOMX 1 30 May 07:43:18 07:47:32 38° 97° (E) 07:51:31 467.674
STRAND 1 30 May 07:44:10 07:49:12 65° 74° (ENE) 07:54:15 437.568
JUGNU 30 May 07:44:14 07:48:14 18° 181° (S) 07:52:13 437.505
NOAA 15 30 May 07:48:11 07:53:26 66° 286° (WNW) 07:58:39 137.62
Cosmos 2504 30 May 07:54:21 07:55:32 10° 283° (WNW) 07:56:43 435.465 / 435.565
SRMSAT 30 May 07:55:28 07:58:41 15° 170° (S) 08:01:53 437.500
Cubesat XI-IV 30 May 08:03:05 08:08:25 71° 286° (WNW) 08:13:46 437.490
AO-85 30 May 08:07:15 08:07:30 10° 318° (NW) 08:07:44 145.980
DOVE 4 30 May 08:17:50 08:21:53 41° 98° (E) 08:25:48 437.250
PCSat 30 May 08:18:38 08:20:21 11° 102° (ESE) 08:22:05 145.827
NOAA 18 30 May 08:24:44 08:29:46 38° 290° (WNW) 08:34:48 137.9125
CINEMA 3 30 May 08:28:58 08:31:07 14° 93° (E) 08:33:16 145.822/145.860
AIST 1 30 May 08:30:28 08:34:33 39° 80° (E) 08:38:34
Cosmos 2499 30 May 08:30:35 08:35:28 16° 66° (ENE) 08:40:23 435.465 / 435.565
GONETS M04 30 May 08:36:12 08:43:33 30° 73° (ENE) 08:50:50
HO-68 30 May 08:40:13 08:46:18 29° 97° (E) 08:52:21 435.675
CUTE-I 30 May 08:49:13 08:53:35 26° 292° (WNW) 08:57:57 437.470
PRISM 30 May 08:54:34 08:58:38 60° 75° (ENE) 09:02:46 437.425
AUBIESAT-1 30 May 09:03:07 09:05:45 22° 102° (ESE) 09:08:25 437.475
SEEDS 30 May 09:10:24 09:14:13 31° 97° (E) 09:17:58 437.485
M-CUBED/EXP-1 PRIME 30 May 09:12:01 09:15:05 37° 104° (ESE) 09:18:12 437.505
CANX-2 30 May 09:13:15 09:17:28 56° 100° (E) 09:21:41 2200.000
BRITE-PL 30 May 09:14:51 09:15:21 10° 299° (WNW) 09:15:51 437.365/2234.400
UWE-3 30 May 09:22:20 09:23:40 11° 93° (E) 09:25:01 435.000/436.395/437.385
GOMX 1 30 May 09:22:33 09:25:13 16° 294° (WNW) 09:27:48 467.674
STRAND 1 30 May 09:26:58 09:28:46 12° 268° (W) 09:30:34 437.568
SO-50 30 May 09:29:34 09:34:10 57° 58° (ENE) 09:38:36 436.795
JUGNU 30 May 09:33:30 09:36:31 14° 191° (SSW) 09:39:32 437.505
O/OREOS (USA 219) 30 May 09:35:36 09:40:09 80° 109° (ESE) 09:44:42 437.305
CUTE 1.7 + AOD 2 30 May 09:39:53 09:44:10 79° 284° (WNW) 09:48:27 437.475
SRMSAT 30 May 09:43:09 09:47:08 18° 180° (S) 09:51:06 437.500
AAUSAT CUBESAT 2 30 May 09:50:28 09:54:34 52° 100° (E) 09:58:39 437.432
COMPASS 1 30 May 09:50:46 09:55:00 68° 102° (ESE) 09:59:11 437.405
ANTELSAT 30 May 09:54:29 09:56:17 12° 66° (ENE) 09:58:03 437.575/2403.000
Oscar 11 30 May 09:56:10 09:59:36 22° 95° (E) 10:03:00 145.826/435.025
DOVE 4 30 May 09:57:06 09:59:10 13° 294° (WNW) 10:01:13 437.250
PCSat 30 May 09:57:37 10:03:01 75° 297° (WNW) 10:08:28 145.827
CINEMA 3 30 May 10:04:35 10:08:23 36° 287° (WNW) 10:12:13 145.822/145.860
AIST 1 30 May 10:09:43 10:11:42 13° 274° (W) 10:13:40
ZACube-1 30 May 10:15:41 10:19:32 33° 98° (E) 10:23:25 437.345
Cosmos 2499 30 May 10:20:55 10:29:42 86° 85° (E) 10:38:36 435.465 / 435.565
HO-68 30 May 10:27:20 10:34:06 46° 292° (WNW) 10:40:52 435.675
GONETS M04 30 May 10:32:19 10:40:37 52° 270° (W) 10:48:55
CUBEBUG 2 30 May 10:33:55 10:38:02 59° 284° (WNW) 10:42:14 437.445
AUBIESAT-1 30 May 10:38:08 10:40:07 15° 295° (WNW) 10:42:06 437.475
SEEDS 30 May 10:46:42 10:49:39 19° 291° (WNW) 10:52:36 437.485
UNISAT 6 30 May 10:47:12 10:51:25 52° 75° (ENE) 10:55:36 437.425
BEESAT 2 30 May 10:50:35 10:53:26 19° 110° (ESE) 10:56:18 435.950
CANX-2 30 May 10:51:41 10:52:48 11° 294° (WNW) 10:53:54 2200.000
FUNcube-1 30 May 10:51:49 10:56:03 89° 117° (ESE) 11:00:21 145.935
TIGRISAT 30 May 10:53:39 10:57:56 59° 75° (ENE) 11:02:09 435.000
UWE-3 30 May 10:56:17 11:00:20 47° 285° (WNW) 11:04:27 435.000/436.395/437.385
SO-50 30 May 11:12:16 11:14:03 12° 253° (WSW) 11:15:49 436.795
CUSAT 1 30 May 11:13:33 11:18:58 29° 85° (E) 11:25:13 437.405
BEESAT 3 30 May 11:18:12 11:22:07 83° 119° (ESE) 11:26:04 437.485
AAUSAT CUBESAT 2 30 May 11:28:17 11:29:33 11° 294° (WNW) 11:30:49 437.432
ANTELSAT 30 May 11:28:20 11:32:33 49° 260° (W) 11:36:43 437.575/2403.000
DELFI C3 30 May 11:31:02 11:34:59 53° 285° (WNW) 11:38:54 145.870
POPSAT HIP 1 30 May 11:31:39 11:35:13 27° 71° (ENE) 11:38:46 437.405
QB50P1 30 May 11:31:43 11:35:18 27° 71° (ENE) 11:38:52 145.935-145.965
Oscar 11 30 May 11:32:02 11:35:39 26° 289° (WNW) 11:39:15 145.826/435.025
SRMSAT 30 May 11:32:22 11:35:35 15° 190° (S) 11:38:46 437.500
HUMSAT D 30 May 11:33:32 11:37:42 64° 101° (E) 11:41:54 437.325/437.525
QB50P2 30 May 11:34:55 11:38:40 31° 72° (ENE) 11:42:25 145.880/145.840
DANDE 30 May 11:36:44 11:40:29 18° 80° (E) 11:44:48 436.750
POLYITAN 1 30 May 11:37:23 11:41:08 32° 72° (ENE) 11:44:54 437.675
JAS-2 30 May 11:39:59 11:42:52 13° 56° (NE) 11:45:48 435.910
PCSat 30 May 11:46:16 11:47:19 11° 315° (NW) 11:48:23 145.827
NANOSAT C BR1 30 May 11:47:57 11:51:54 40° 73° (ENE) 11:55:52 145.865
ZACube-1 30 May 11:52:48 11:55:33 17° 291° (WNW) 11:58:19 437.345
CUBEBUG 1 30 May 11:58:29 12:00:17 12° 92° (E) 12:02:05 437.445
ESTCUBE 1 30 May 12:02:51 12:06:26 22° 95° (E) 12:09:59 437.505/2401.250
VELOX 1 30 May 12:12:29 12:15:30 18° 95° (E) 12:18:30 145.980
Cosmos 2499 30 May 12:16:37 12:21:41 17° 280° (W) 12:26:48 435.465 / 435.565
DUCHIFAT 1 30 May 12:24:46 12:28:58 74° 258° (WSW) 12:33:11 145.980
UNISAT 6 30 May 12:27:24 12:28:23 11° 268° (W) 12:29:22 437.425
BEESAT 2 30 May 12:27:36 12:31:04 28° 305° (NW) 12:34:34 435.950
BUGSAT 1 30 May 12:30:11 12:34:18 55° 75° (ENE) 12:38:22 437.445
